[Date Prev][Date Next][Thread Prev][Thread Next] - [Date Index][Thread Index][Author Index]

2 Line ISS Keps 3-28



ISS
1 25544U 98067A   03086.51620370  .00013409  00000-0  17374-3 0  8217
2 25544  51.6352  70.4299 0008391  17.4625 121.2416 15.59184715248266



----
Via the sarex mailing list at AMSAT.ORG courtesy of AMSAT-NA.
To unsubscribe, send "unsubscribe sarex" to Majordomo@amsat.org



AMSAT Top AMSAT Home